#timestamp,LO_Frequency,Hit,StdDev 
1618306295.3,286046941.8,P
1618306315.2,286046941.0,N
1618306335.0,286046942.9,N
1618306335.9,286046942.9,N
1618306355.7,286046941.4,N
1618306375.6,286046942.2,N
1618306395.4,286046943.1,N
1618306415.3,286046941.2,N
1618306435.1,286046941.7,N
1618306436.0,286046941.7,N
1618306455.8,286046938.9,N
1618306475.7,286046939.5,N
1618306495.5,286046938.9,N
1618306515.3,286046939.0,N
1618306535.2,286046938.9,N
1618306555.0,286046937.4,N
1618306555.9,286046937.4,N
1618306575.8,286046940.8,N
1618306595.6,286046941.1,N
1618306615.4,286046939.8,N
1618306635.3,286046937.6,N
1618306655.1,286046936.3,N
1618306675.9,286046934.7,N
1618306695.7,286046933.3,N
1618306715.5,286046934.8,N
1618306735.4,286046935.4,N
1618306755.2,286046934.2,N
1618306775.0,286046935.2,N
1618306775.9,286046935.2,N
1618306795.8,286046934.5,N
1618306815.6,286046935.0,Y
1618306835.5,286046999.3,P
1618306855.3,286046998.3,N
1618306875.1,286046999.0,N
1618306895.9,286046997.9,N
1618306915.7,286046993.5,N
1618306935.5,286046992.3,N
1618306955.4,286046992.6,N
1618306975.2,286046991.8,N
1618306995.1,286046993.2,N
1618306996.0,286046993.2,N
1618307015.8,286046991.1,N
1618307035.6,286046988.6,N
1618307055.5,286046989.4,N
1618307075.3,286046989.6,N
1618307095.1,286046989.5,N
1618307115.9,286046989.2,N
1618307135.7,286046991.2,N
1618307155.6,286046991.4,N
1618307175.4,286046990.7,N
1618307195.2,286046988.8,N
1618307215.1,286046989.5,N
1618307216.0,286046989.5,N
1618307235.8,286046987.3,N
1618307255.6,286046990.0,N
1618307275.5,286046989.9,N
1618307295.3,286046987.2,N
1618307315.2,286046987.8,N
1618307335.9,286046987.3,N
1618307355.7,286046989.5,N
1618307375.6,286046993.2,N
1618307395.4,286046988.7,Y
1618307415.2,286046997.5,P
1618307435.1,286046996.3,N
1618307436.0,286046996.3,N
1618307455.8,286046996.4,N
1618307475.7,286046994.6,N
1618307495.5,286046994.2,N
1618307515.3,286046994.6,N
1618307535.2,286046993.8,Y
1618307555.0,286046998.5,P
1618307555.9,286046998.5,N
1618307575.8,286047001.1,N
1618307595.6,286047002.7,N
1618307615.4,286047000.4,N
1618307635.3,286047000.4,N
1618307655.1,286047002.4,N
1618307675.8,286046998.1,N
1618307695.7,286046998.6,N
1618307715.5,286046999.1,N
1618307735.4,286046999.0,N
1618307755.2,286046996.5,N
1618307775.0,286046996.5,N
1618307775.9,286046996.5,N
1618307795.8,286046997.9,N
1618307815.6,286046997.1,N
1618307835.4,286046997.3,N
1618307855.3,286046997.2,N
1618307875.1,286046997.3,N
1618307895.9,286046997.4,N
1618307915.7,286046999.4,N
1618307935.5,286046997.0,N
1618307955.4,286046997.8,N
1618307975.2,286046999.0,N
1618307995.0,286046997.2,N
1618307996.0,286046997.2,N
